TimeCDT,TemperatureF,Dew PointF,Humidity,Sea Level PressureIn,VisibilityMPH,Wind Direction,Wind SpeedMPH,Gust SpeedMPH,PrecipitationIn,Events,Conditions,WindDirDegrees,DateUTC
12:15 AM,50.7,49.3,95,29.96,10.0,Calm,Calm,-,N/A,,Clear,0,2013-09-22 05:15:00
12:35 AM,49.1,48.0,96,29.96,10.0,Calm,Calm,-,N/A,,Clear,0,2013-09-22 05:35:00
12:55 AM,49.3,48.0,95,29.96,10.0,Calm,Calm,-,N/A,,Clear,0,2013-09-22 05:55:00
1:15 AM,48.2,47.1,96,29.97,10.0,Calm,Calm,-,N/A,,Clear,0,2013-09-22 06:15:00
1:35 AM,47.7,46.6,96,29.97,10.0,Calm,Calm,-,N/A,,Clear,0,2013-09-22 06:35:00
1:55 AM,47.5,46.4,96,29.97,10.0,Calm,Calm,-,N/A,,Clear,0,2013-09-22 06:55:00
2:15 AM,47.7,46.6,96,29.97,10.0,Calm,Calm,-,N/A,,Clear,0,2013-09-22 07:15:00
2:35 AM,45.5,44.6,97,29.97,10.0,Calm,Calm,-,N/A,,Clear,0,2013-09-22 07:35:00
2:55 AM,46.4,45.7,97,29.97,10.0,Calm,Calm,-,N/A,,Clear,0,2013-09-22 07:55:00
3:15 AM,46.8,46.0,97,29.97,10.0,Calm,Calm,-,N/A,,Clear,0,2013-09-22 08:15:00
3:35 AM,46.0,45.3,97,29.97,5.0,Calm,Calm,-,N/A,,Clear,0,2013-09-22 08:35:00
3:55 AM,45.7,45.0,97,29.97,1.8,Calm,Calm,-,N/A,,Mist,0,2013-09-22 08:55:00
4:15 AM,45.3,44.6,97,29.98,1.5,Calm,Calm,-,N/A,,Mist,0,2013-09-22 09:15:00
4:35 AM,45.3,44.4,97,29.98,10.0,Calm,Calm,-,N/A,,Clear,0,2013-09-22 09:35:00
4:55 AM,44.8,44.2,98,29.98,5.0,Calm,Calm,-,N/A,,Clear,0,2013-09-22 09:55:00
5:15 AM,44.1,43.5,98,29.99,10.0,Calm,Calm,-,N/A,,Clear,0,2013-09-22 10:15:00
5:35 AM,43.9,43.0,97,29.99,10.0,Calm,Calm,-,N/A,,Clear,0,2013-09-22 10:35:00
5:55 AM,43.9,43.0,97,29.99,10.0,Calm,Calm,-,N/A,,Clear,0,2013-09-22 10:55:00
6:15 AM,44.6,43.7,97,30.00,10.0,Calm,Calm,-,N/A,,Clear,0,2013-09-22 11:15:00
6:35 AM,45.7,45.0,97,30.00,10.0,Calm,Calm,-,N/A,,Clear,0,2013-09-22 11:35:00
6:55 AM,43.2,42.1,96,30.01,10.0,Calm,Calm,-,N/A,,Clear,0,2013-09-22 11:55:00
7:15 AM,45.0,44.2,97,30.01,10.0,Calm,Calm,-,N/A,,Clear,0,2013-09-22 12:15:00
7:35 AM,46.2,45.5,97,30.02,10.0,Calm,Calm,-,N/A,,Clear,0,2013-09-22 12:35:00
7:55 AM,48.4,47.7,97,30.03,10.0,Calm,Calm,-,N/A,,Clear,0,2013-09-22 12:55:00
8:15 AM,50.0,48.9,96,30.03,10.0,East,3.5,-,N/A,,Clear,90,2013-09-22 13:15:00
8:35 AM,52.5,50.0,91,30.03,10.0,East,5.8,-,N/A,,Clear,90,2013-09-22 13:35:00
8:55 AM,55.2,51.3,87,30.04,10.0,East,6.9,-,N/A,,Clear,100,2013-09-22 13:55:00
9:15 AM,57.0,51.6,82,30.05,10.0,ESE,4.6,-,N/A,,Clear,110,2013-09-22 14:15:00
9:35 AM,59.0,51.3,75,30.05,10.0,ESE,8.1,-,N/A,,Clear,110,2013-09-22 14:35:00
9:55 AM,60.6,51.8,73,30.05,10.0,ESE,3.5,-,N/A,,Clear,120,2013-09-22 14:55:00
10:15 AM,62.2,52.3,70,30.05,10.0,East,3.5,-,N/A,,Clear,80,2013-09-22 15:15:00
10:35 AM,62.8,51.8,67,30.06,10.0,Calm,Calm,-,N/A,,Clear,0,2013-09-22 15:35:00
10:55 AM,64.4,50.5,61,30.05,10.0,East,3.5,-,N/A,,Clear,80,2013-09-22 15:55:00
11:15 AM,65.3,50.5,59,30.05,10.0,Calm,Calm,-,N/A,,Clear,0,2013-09-22 16:15:00
11:35 AM,67.1,51.3,57,30.05,10.0,East,3.5,-,N/A,,Clear,100,2013-09-22 16:35:00
11:55 AM,67.5,50.5,55,30.04,10.0,ESE,3.5,-,N/A,,Clear,110,2013-09-22 16:55:00
12:15 PM,67.6,49.6,52,30.03,10.0,Calm,Calm,-,N/A,,Scattered Clouds,0,2013-09-22 17:15:00
12:35 PM,68.5,50.2,52,30.03,10.0,ENE,5.8,-,N/A,,Clear,60,2013-09-22 17:35:00
12:55 PM,68.9,49.8,51,30.02,10.0,ENE,4.6,-,N/A,,Clear,70,2013-09-22 17:55:00
1:15 PM,69.4,50.4,51,30.01,10.0,NE,5.8,-,N/A,,Clear,40,2013-09-22 18:15:00
1:35 PM,70.3,50.4,49,30.01,10.0,ESE,4.6,-,N/A,,Clear,120,2013-09-22 18:35:00
1:55 PM,70.7,50.5,49,30.00,10.0,Calm,Calm,-,N/A,,Clear,0,2013-09-22 18:55:00
2:15 PM,71.1,49.6,47,30.00,10.0,ESE,4.6,-,N/A,,Clear,110,2013-09-22 19:15:00
2:35 PM,71.2,49.5,46,29.99,10.0,Calm,Calm,-,N/A,,Clear,0,2013-09-22 19:35:00
2:55 PM,71.8,50.0,46,29.98,10.0,Calm,Calm,-,N/A,,Clear,0,2013-09-22 19:55:00
3:15 PM,71.6,49.3,45,29.98,10.0,Calm,Calm,-,N/A,,Clear,0,2013-09-22 20:15:00
3:35 PM,72.0,48.4,43,29.98,10.0,Calm,Calm,-,N/A,,Clear,0,2013-09-22 20:35:00
3:55 PM,72.5,48.7,43,29.97,10.0,Calm,Calm,-,N/A,,Clear,0,2013-09-22 20:55:00
4:15 PM,72.5,48.4,42,29.97,10.0,Calm,Calm,-,N/A,,Clear,0,2013-09-22 21:15:00
4:35 PM,72.5,48.4,42,29.97,10.0,ESE,4.6,-,N/A,,Clear,110,2013-09-22 21:35:00
4:55 PM,72.5,49.8,45,29.96,10.0,SE,5.8,-,N/A,,Clear,140,2013-09-22 21:55:00
5:15 PM,71.8,48.7,44,29.96,10.0,Calm,Calm,-,N/A,,Clear,0,2013-09-22 22:15:00
5:35 PM,71.6,49.6,46,29.97,10.0,Calm,Calm,-,N/A,,Clear,0,2013-09-22 22:35:00
5:55 PM,70.3,50.2,49,29.97,10.0,East,5.8,-,N/A,,Clear,100,2013-09-22 22:55:00
6:15 PM,68.4,51.1,54,29.97,10.0,ESE,4.6,-,N/A,,Clear,120,2013-09-22 23:15:00
6:35 PM,66.6,51.1,57,29.97,10.0,ESE,3.5,-,N/A,,Clear,110,2013-09-22 23:35:00
6:55 PM,64.8,50.4,60,29.96,10.0,ESE,3.5,-,N/A,,Clear,120,2013-09-22 23:55:00
7:15 PM,64.0,50.0,60,29.96,10.0,SE,3.5,-,N/A,,Clear,130,2013-09-23 00:15:00
7:35 PM,61.9,50.4,66,29.97,5.0,SE,3.5,-,N/A,,Haze,130,2013-09-23 00:35:00
7:55 PM,60.8,50.2,68,29.97,10.0,SE,3.5,-,N/A,,Clear,130,2013-09-23 00:55:00
8:15 PM,59.2,50.2,72,29.98,10.0,SSE,3.5,-,N/A,,Clear,150,2013-09-23 01:15:00
8:35 PM,56.7,49.8,78,29.98,10.0,SE,3.5,-,N/A,,Clear,140,2013-09-23 01:35:00
8:55 PM,56.1,50.0,80,29.98,10.0,Calm,Calm,-,N/A,,Clear,0,2013-09-23 01:55:00
9:15 PM,54.0,49.3,84,29.99,10.0,Calm,Calm,-,N/A,,Clear,0,2013-09-23 02:15:00
9:35 PM,52.2,48.9,89,29.99,10.0,Calm,Calm,-,N/A,,Clear,0,2013-09-23 02:35:00
9:55 PM,52.7,49.6,89,29.99,10.0,Calm,Calm,-,N/A,,Clear,0,2013-09-23 02:55:00
10:15 PM,51.4,48.7,90,29.99,10.0,ENE,4.6,-,N/A,,Clear,70,2013-09-23 03:15:00
10:35 PM,51.8,48.2,88,29.99,10.0,ENE,4.6,-,N/A,,Clear,70,2013-09-23 03:35:00
10:55 PM,51.8,48.0,87,30.00,10.0,ENE,3.5,-,N/A,,Clear,70,2013-09-23 03:55:00
11:15 PM,52.0,48.2,87,30.00,10.0,ENE,3.5,-,N/A,,Clear,70,2013-09-23 04:15:00
11:35 PM,51.3,46.9,85,30.00,10.0,East,4.6,-,N/A,,Clear,80,2013-09-23 04:35:00
11:55 PM,50.2,46.4,87,30.00,5.0,East,5.8,-,N/A,,Clear,90,2013-09-23 04:55:00